[[{"header":{"parameterUnit":"m.s-1","parameterCategory":2,"la1":30.2991,"la2":30.254,"lo1":-89.0895,"lo2":-89.0444,"dy":0.0017,"dx":0.0017,"nx":28,"ny":28,"refTime":"2024-04-21T21:00:00:Z","depth":"0","parameterNumber":2,"parameterNumberName":"U-component_of_CURRENTS"},"data":[0,0,0,0,0,0,0,0,0,0,0,0,0,0,0,0,0,0,0,0,0,0,0,0,0,0,0,0,0,0,0,0,0,0,0,0,0,0,0,0,0,0,0,0,0,0,0,0,0,0,0,0,0,0,0,0,0,0,0.1722,0.1722,0,0.1762,0.1763,0.1763,0.1763,0.1763,0.1762,0.1762,0.1752,0.1752,0.1752,0,0,0,0,0,0,0,0,0,0,0,0,0,0.1658,0.1659,0.1722,0.1722,0.1723,0.1762,0.1763,0.1763,0.1763,0.1763,0.1762,0.1762,0.1752,0.1752,0.1752,0,0,0,0,0,0,0,0,0,0,0,0,0,0.1689,0.166,0.1721,0.1729,0.173,0.1762,0.1763,0.1763,0.1763,0.1763,0.1762,0.1761,0.1752,0.1752,0.1752,0.1764,0,0,0.1753,0.1753,0,0,0,0,0,0,0,0,0.1688,0.1692,0.1727,0.1728,0.173,0.1759,0.1737,0.1762,0.1763,0.1749,0.1762,0.1761,0.1751,0.1751,0.1758,0.1764,0.1763,0.1753,0.1753,0.1753,0.1753,0,0,0,0,0,0,0,0.1685,0.169,0.1736,0.1728,0.173,0.1736,0.1739,0.1742,0.175,0.175,0.175,0.1758,0.1751,0.1758,0.1758,0.1763,0.1753,0.1753,0.1753,0.1753,0.1805,0.1806,0,0,0,0,0,0,0.1684,0.1688,0.1735,0.1737,0.1709,0.1737,0.1741,0.1748,0.1751,0.1752,0.1758,0.1758,0.1758,0.1758,0.1758,0.1794,0.1753,0.1753,0.1753,0.1803,0.1805,0.1806,0,0,0,0,0,0,0.1683,0.1688,0.1733,0.1715,0.1721,0.1739,0.1747,0.175,0.1759,0.1759,0.1758,0.1766,0.1758,0.1757,0.1773,0.1793,0.1753,0.1753,0.1802,0.1804,0.1806,0.1853,0,0,0,0,0,0,0.1681,0.1687,0.1692,0.1715,0.1722,0.1757,0.1748,0.1751,0.1765,0.1765,0.1765,0.1763,0.1757,0.1773,0.1773,0.1792,0.1753,0.18,0.1803,0.1805,0.185,0.1856,0.1862,0,0,0,0,0,0.1678,0.1688,0.1692,0.1698,0.1728,0.1758,0.1763,0.1772,0.1766,0.1776,0.178,0.1763,0.1788,0.1774,0.1774,0.1794,0.1799,0.1802,0.1805,0.1847,0.1855,0.1862,0,0,0,0,0,0,0.1665,0.169,0.1694,0.1712,0.1736,0.1759,0.1771,0.1776,0.1788,0.1785,0.1779,0.1779,0.18,0.1793,0.1777,0.1817,0.1791,0.1794,0.1823,0.1831,0.1837,0.1836,0.1753,0,0,0,0,0,0.1665,0.1677,0.1705,0.172,0.1733,0.1752,0.1764,0.1773,0.1787,0.1792,0.1794,0.1799,0.1813,0.1817,0.1824,0.1845,0.1857,0.1859,0.1865,0.187,0.1871,0.1908,0.1917,0.1816,0.1816,0.1816,0,0,0.1663,0.168,0.1686,0.1718,0.1736,0.1763,0.1758,0.1782,0.1804,0.1789,0.1814,0.1818,0.1823,0.1849,0.1858,0.1845,0.1912,0.1874,0.1878,0.1876,0.1912,0.1921,0.193,0.1818,0.1817,0.1817,0,0,0.1672,0.1684,0.17,0.1723,0.1755,0.1771,0.1779,0.1807,0.1818,0.1845,0.1844,0.1861,0.1876,0.1889,0.1897,0.194,0.1942,0.1943,0.1974,0.201,0.2018,0.2026,0.2081,0.2093,0.1947,0.1947,0.1947,0,0.167,0.1694,0.171,0.1736,0.1758,0.1776,0.1804,0.1824,0.1852,0.1868,0.1857,0.1899,0.1896,0.1939,0.1954,0.1953,0.1981,0.1944,0.2018,0.2025,0.2032,0.2086,0.2099,0.195,0.195,0.1949,0.1949,0,0.1694,0.1716,0.1731,0.1769,0.1794,0.1822,0.1854,0.1878,0.189,0.1908,0.1948,0.1956,0.1981,0.1987,0.1981,0.2035,0.2043,0.2021,0.1998,0.2045,0.2099,0.2112,0.1954,0.1953,0.1952,0.1951,0,0,0.1686,0.1737,0.1742,0.1766,0.1814,0.1838,0.188,0.1925,0.1956,0.1979,0.202,0.2043,0.2048,0.2057,0.2061,0.2086,0.2162,0.2076,0.2077,0.2129,0.2266,0.2332,0.2352,0.2155,0.2156,0.2158,0.2294,0,0.1703,0.175,0.1773,0.1822,0.1852,0.1885,0.1923,0.1963,0.1996,0.2039,0.2059,0.2096,0.2078,0.2096,0.2122,0.2151,0.2192,0.2128,0.2214,0.2217,0.2268,0.2367,0.2336,0.2459,0.2306,0.2308,0.2309,0,0.172,0.1752,0.1795,0.1852,0.1868,0.1896,0.1962,0.1998,0.2061,0.2088,0.2133,0.2152,0.221,0.2174,0.2265,0.2229,0.2254,0.2269,0.2274,0.2324,0.2305,0.2383,0.2487,0.2429,0.2328,0.2326,0.2325,0,0.1706,0.1767,0.18,0.1821,0.1886,0.191,0.1944,0.2007,0.2053,0.2123,0.217,0.2228,0.2277,0.2311,0.2366,0.2319,0.2466,0.2403,0.2491,0.2496,0.248,0.2481,0.2533,0.2464,0.2464,0.2464,0.2463,0,0.1712,0.1739,0.1794,0.1812,0.1854,0.1901,0.1956,0.1997,0.2078,0.2144,0.2192,0.2271,0.2313,0.2403,0.2415,0.2529,0.2518,0.2529,0.2546,0.25,0.2501,0.2456,0.2408,0.2469,0.2468,0.2467,0.2466,0,0.1685,0.1722,0.1762,0.1825,0.1844,0.1869,0.1957,0.2,0.2084,0.2178,0.2209,0.2334,0.2468,0.2532,0.2617,0.2622,0.2643,0.2725,0.2687,0.2698,0.2702,0.2659,0.2636,0.255,0.2839,0.2842,0.2844,0,0.1673,0.169,0.1752,0.177,0.1794,0.1849,0.1883,0.1978,0.2032,0.2223,0.2261,0.2442,0.2566,0.2755,0.2811,0.2901,0.2765,0.2901,0.2795,0.2739,0.2702,0.2552,0.2467,0.2798,0.28,0.2801,0.2802,0,0.1641,0.166,0.1687,0.1733,0.1765,0.1816,0.1876,0.1934,0.2063,0.2159,0.2318,0.2447,0.2692,0.2803,0.2959,0.2989,0.2789,0.2933,0.2871,0.2693,0.2534,0.2447,0.268,0.2814,0.2813,0.2812,0.2811,0.2811,0.1601,0.1609,0.1645,0.1686,0.1724,0.1774,0.1802,0.1897,0.1995,0.2146,0.23,0.2473,0.272,0.2952,0.2968,0.3005,0.2905,0.2929,0.2892,0.2752,0.2635,0.2924,0.3074,0.3074,0.3075,0.3075,0.3075,0,0.1551,0.1569,0.1601,0.1639,0.166,0.1711,0.1784,0.1814,0.1908,0.21,0.2242,0.2514,0.2694,0.2853,0.3016,0.2964,0.2772,0.2894,0.2645,0.2566,0.2843,0.2808,0.2912,0.2912,0.2912,0.2912,0.2912,0.2912,0.152,0.1526,0.1552,0.1568,0.1597,0.161,0.1644,0.1707,0.1827,0.2009,0.2171,0.2346,0.2672,0.2936,0.2976,0.2907,0.2645,0.2597,0.2509,0.2696,0.2693,0.269,0.2645,0.2714,0.2714,0.2131,0.2127,0.2124]},{"header":{"parameterUnit":"m.s-1","parameterCategory":2,"la1":30.2991,"la2":30.254,"lo1":-89.0895,"lo2":-89.0444,"dy":0.0017,"dx":0.0017,"nx":28,"ny":28,"refTime":"2024-04-21T21:00:00:Z","depth":"0","parameterNumber":3,"parameterNumberName":"V-component_of_CURRENTS"},"data":[0,0,0,0,0,0,0,0,0,0,0,0,0,0,0,0,0,0,0,0,0,0,0,0,0,0,0,0,0,0,0,0,0,0,0,0,0,0,0,0,0,0,0,0,0,0,0,0,0,0,0,0,0,0,0,0,0,0,-0.0504,-0.0505,0,-0.0581,-0.0582,-0.0583,-0.0644,-0.0644,-0.0645,-0.0645,-0.0716,-0.0717,-0.0719,0,0,0,0,0,0,0,0,0,0,0,0,0,-0.0501,-0.0501,-0.0504,-0.0505,-0.0506,-0.0581,-0.0582,-0.0583,-0.0644,-0.0644,-0.0645,-0.0645,-0.0715,-0.0717,-0.0719,0,0,0,0,0,0,0,0,0,0,0,0,0,-0.0534,-0.05,-0.0504,-0.0544,-0.0548,-0.058,-0.0582,-0.0584,-0.0644,-0.0644,-0.0645,-0.0645,-0.0715,-0.0717,-0.0719,-0.072,0,0,-0.0726,-0.0727,0,0,0,0,0,0,0,0,-0.0532,-0.0534,-0.0537,-0.0541,-0.0546,-0.0602,-0.0607,-0.0628,-0.0643,-0.0609,-0.0645,-0.0646,-0.0675,-0.0681,-0.0697,-0.0723,-0.0726,-0.0726,-0.0727,-0.0728,-0.0729,0,0,0,0,0,0,0,-0.053,-0.0532,-0.0537,-0.0538,-0.0543,-0.0589,-0.0593,-0.0612,-0.0639,-0.0612,-0.0616,-0.0622,-0.0678,-0.0694,-0.0699,-0.0727,-0.0726,-0.0728,-0.0729,-0.073,-0.0782,-0.0782,0,0,0,0,0,0,-0.0511,-0.0529,-0.0534,-0.0539,-0.0538,-0.0587,-0.0593,-0.0585,-0.0639,-0.0648,-0.0621,-0.0624,-0.069,-0.0696,-0.0701,-0.0719,-0.0728,-0.073,-0.0732,-0.0782,-0.0782,-0.0782,0,0,0,0,0,0,-0.051,-0.051,-0.0531,-0.0535,-0.0541,-0.0586,-0.0577,-0.0586,-0.0601,-0.0645,-0.0654,-0.0627,-0.0691,-0.0698,-0.0722,-0.0722,-0.0731,-0.0733,-0.0782,-0.0782,-0.0782,-0.0747,0,0,0,0,0,0,-0.0509,-0.0509,-0.0497,-0.0533,-0.054,-0.0543,-0.0576,-0.0587,-0.0603,-0.0608,-0.0653,-0.0661,-0.0692,-0.0719,-0.0724,-0.0725,-0.0735,-0.0782,-0.0782,-0.0782,-0.0748,-0.0745,-0.0743,0,0,0,0,0,-0.0509,-0.0486,-0.0495,-0.0496,-0.0521,-0.0542,-0.055,-0.0587,-0.0602,-0.0604,-0.0641,-0.066,-0.0724,-0.072,-0.0727,-0.0729,-0.0782,-0.0782,-0.0782,-0.0749,-0.0746,-0.0744,0,0,0,0,0,0,-0.0474,-0.0491,-0.0502,-0.0484,-0.0508,-0.0552,-0.0555,-0.0579,-0.0611,-0.0615,-0.0659,-0.0669,-0.0691,-0.0712,-0.0707,-0.0745,-0.0756,-0.0757,-0.0728,-0.0726,-0.0724,-0.0705,-0.0737,0,0,0,0,0,-0.0459,-0.045,-0.0477,-0.0463,-0.0471,-0.0511,-0.0524,-0.0548,-0.058,-0.0595,-0.0629,-0.0664,-0.0696,-0.0712,-0.0739,-0.0755,-0.077,-0.0762,-0.0759,-0.0757,-0.0747,-0.0779,-0.0779,-0.0783,-0.0783,-0.0783,0,0,-0.0442,-0.045,-0.0445,-0.0456,-0.0478,-0.0485,-0.0521,-0.0533,-0.0544,-0.0596,-0.0617,-0.0654,-0.0698,-0.0723,-0.0734,-0.0741,-0.0762,-0.0758,-0.0756,-0.0747,-0.078,-0.0779,-0.0779,-0.0783,-0.0783,-0.0783,0,0,-0.0407,-0.0409,-0.0393,-0.0409,-0.0433,-0.046,-0.0459,-0.0498,-0.0519,-0.0543,-0.0587,-0.0623,-0.0664,-0.0704,-0.0728,-0.0727,-0.0748,-0.0735,-0.0712,-0.0743,-0.0743,-0.0743,-0.0748,-0.0749,-0.0736,-0.0736,-0.0736,0,-0.0385,-0.0367,-0.0393,-0.0388,-0.0395,-0.0443,-0.0434,-0.0464,-0.0508,-0.0521,-0.0541,-0.0617,-0.0657,-0.0695,-0.0704,-0.0722,-0.0733,-0.0718,-0.0739,-0.074,-0.0741,-0.0746,-0.0748,-0.0734,-0.0734,-0.0735,-0.0735,0,-0.0344,-0.0334,-0.0326,-0.0335,-0.0348,-0.0347,-0.0389,-0.0406,-0.0437,-0.0471,-0.0509,-0.0573,-0.0616,-0.0642,-0.0676,-0.0703,-0.0705,-0.0731,-0.0743,-0.0738,-0.0744,-0.0746,-0.0732,-0.0732,-0.0733,-0.0733,0,0,-0.0281,-0.0293,-0.029,-0.0284,-0.0318,-0.0321,-0.0339,-0.0365,-0.0366,-0.0428,-0.0435,-0.0518,-0.0554,-0.0583,-0.0634,-0.0673,-0.0694,-0.07,-0.0703,-0.0699,-0.0741,-0.0706,-0.0705,-0.0723,-0.0724,-0.0724,-0.0739,0,-0.0239,-0.0211,-0.0235,-0.0216,-0.0206,-0.0252,-0.026,-0.0294,-0.0331,-0.0351,-0.0431,-0.0459,-0.0531,-0.0547,-0.06,-0.0668,-0.0699,-0.0686,-0.0751,-0.0752,-0.0718,-0.0707,-0.0681,-0.0689,-0.0741,-0.0741,-0.0741,0,-0.0189,-0.0178,-0.0146,-0.0148,-0.0146,-0.0146,-0.0159,-0.0175,-0.0227,-0.0254,-0.0311,-0.0365,-0.0436,-0.049,-0.0606,-0.0592,-0.0658,-0.0715,-0.0717,-0.0697,-0.0722,-0.0706,-0.0691,-0.0858,-0.0745,-0.0745,-0.0744,0,-0.0125,-0.0115,-0.0083,-0.0085,-0.0098,-0.009,-0.0101,-0.0141,-0.0134,-0.019,-0.0183,-0.0288,-0.0312,-0.043,-0.0551,-0.0577,-0.0659,-0.0712,-0.074,-0.0738,-0.0734,-0.073,-0.0882,-0.078,-0.078,-0.078,-0.078,0,-0.0067,-0.0042,-0.0047,-0.003,0.0013,-0.0025,0.0012,-0.002,-0.0036,-0.0004,-0.0124,-0.0109,-0.0297,-0.0367,-0.0505,-0.0611,-0.0624,-0.0722,-0.0739,-0.0719,-0.0713,-0.0873,-0.0956,-0.0781,-0.0781,-0.0781,-0.078,0,0.0002,-0.0006,0.0034,0.0039,0.0046,0.0075,0.0097,0.0123,0.009,0.0132,0.0126,0.0038,-0.0049,-0.0224,-0.0389,-0.052,-0.0725,-0.0681,-0.0627,-0.0637,-0.0829,-0.0909,-0.1044,-0.1115,-0.0722,-0.0722,-0.0721,0,0.0041,0.007,0.0098,0.0132,0.014,0.0178,0.021,0.0188,0.0231,0.0239,0.0279,0.0212,0.02,-0.0033,-0.0278,-0.0491,-0.0667,-0.0617,-0.0676,-0.0823,-0.0927,-0.1,-0.1057,-0.0657,-0.0656,-0.0655,-0.0654,0,0.0122,0.013,0.0163,0.0234,0.0278,0.0331,0.0382,0.044,0.044,0.0484,0.0551,0.0545,0.0339,0.0147,-0.0155,-0.0333,-0.0723,-0.0603,-0.0787,-0.0904,-0.0963,-0.1043,-0.0653,-0.0646,-0.0647,-0.0648,-0.0648,-0.0649,0.0185,0.0229,0.0278,0.0348,0.0402,0.0489,0.0561,0.0634,0.0728,0.0826,0.079,0.0826,0.0508,0.0108,-0.015,-0.0623,-0.0648,-0.0785,-0.0872,-0.0934,-0.1004,-0.0571,-0.0566,-0.0566,-0.0567,-0.0567,-0.0567,0,0.0275,0.032,0.0391,0.0475,0.0559,0.0563,0.0683,0.0767,0.0916,0.1009,0.108,0.0959,0.0569,0.0129,-0.0489,-0.0836,-0.0999,-0.1049,-0.1183,-0.1231,-0.0874,-0.0874,-0.0896,-0.0896,-0.0896,-0.0896,-0.0896,-0.0896,0.0324,0.0416,0.0452,0.0603,0.0665,0.079,0.0871,0.0995,0.1096,0.1235,0.1277,0.1268,0.0933,-0.0182,-0.0986,-0.1186,-0.1444,-0.1478,-0.1624,-0.1423,-0.1408,-0.1392,-0.1416,-0.1552,-0.1552,-0.1953,-0.1957,-0.196]}],[{"header":{"parameterUnit":"m.s-1","parameterCategory":2,"la1":30.2991,"la2":30.254,"lo1":-89.0895,"lo2":-89.0444,"dy":0.0017,"dx":0.0017,"nx":28,"ny":28,"refTime":"2024-04-21T21:00:00:Z","depth":"2","parameterNumber":2,"parameterNumberName":"U-component_of_CURRENTS"},"data":[0,0,0,0,0,0,0,0,0,0,0,0,0,0,0,0,0,0,0,0,0,0,0,0,0,0,0,0,0,0,0,0,0,0,0,0,0,0,0,0,0,0,0,0,0,0,0,0,0,0,0,0,0,0,0,0,0,0,0.1662,0.1663,0,0.1713,0.1713,0.1714,0.1728,0.1728,0.1727,0.1727,0.1719,0.1719,0.1719,0,0,0,0,0,0,0,0,0,0,0,0,0,0.1588,0.1589,0.1662,0.1663,0.1664,0.1713,0.1713,0.1714,0.1728,0.1728,0.1727,0.1727,0.1719,0.1719,0.1719,0,0,0,0,0,0,0,0,0,0,0,0,0,0.1627,0.1589,0.1662,0.1677,0.1679,0.1713,0.1713,0.1714,0.1728,0.1728,0.1727,0.1727,0.1719,0.1719,0.1719,0.1725,0,0,0.1719,0.1719,0,0,0,0,0,0,0,0,0.1624,0.1629,0.1674,0.1676,0.1678,0.1714,0.1684,0.1715,0.1728,0.1709,0.1727,0.1727,0.1713,0.1713,0.1723,0.1725,0.1725,0.1719,0.1719,0.1719,0.1719,0,0,0,0,0,0,0,0.1622,0.1627,0.1682,0.1675,0.1678,0.1685,0.169,0.169,0.171,0.171,0.1712,0.1719,0.1713,0.1723,0.1723,0.1725,0.1719,0.1719,0.1719,0.1719,0.1769,0.177,0,0,0,0,0,0,0.1617,0.1625,0.168,0.1683,0.1651,0.1686,0.1692,0.1703,0.1712,0.1713,0.1719,0.1719,0.1724,0.1723,0.1723,0.176,0.1719,0.1719,0.1719,0.1767,0.1769,0.1771,0,0,0,0,0,0,0.1615,0.1622,0.1678,0.1655,0.1663,0.1688,0.17,0.1704,0.1718,0.1719,0.1719,0.1729,0.1723,0.1723,0.1736,0.1759,0.1719,0.1719,0.1766,0.1768,0.177,0.1816,0,0,0,0,0,0,0.1613,0.1621,0.1628,0.1655,0.1664,0.1702,0.17,0.1705,0.1722,0.1723,0.1728,0.1726,0.1723,0.1736,0.1736,0.1758,0.1719,0.1764,0.1767,0.1769,0.1813,0.1819,0.1825,0,0,0,0,0,0.161,0.1621,0.1629,0.1635,0.1674,0.1702,0.1708,0.1724,0.1723,0.1734,0.1741,0.1727,0.1752,0.1737,0.1736,0.1759,0.1763,0.1766,0.1769,0.181,0.1818,0.1825,0,0,0,0,0,0,0.1589,0.1624,0.1633,0.1653,0.1678,0.1705,0.1718,0.1727,0.1742,0.1743,0.1739,0.1739,0.176,0.1754,0.1738,0.1783,0.1757,0.176,0.1788,0.1796,0.1802,0.1804,0.1719,0,0,0,0,0,0.159,0.161,0.164,0.1657,0.167,0.1695,0.1709,0.1722,0.1739,0.1746,0.175,0.1759,0.1773,0.1779,0.1786,0.1806,0.1817,0.1823,0.1829,0.1834,0.1838,0.1873,0.1883,0.178,0.178,0.178,0,0,0.1587,0.1608,0.162,0.1655,0.1675,0.1703,0.1702,0.1729,0.1753,0.1741,0.177,0.1776,0.1783,0.1811,0.182,0.1808,0.1874,0.1838,0.1842,0.1843,0.1878,0.1887,0.1896,0.1782,0.1782,0.1782,0,0,0.1593,0.1612,0.1632,0.1656,0.1691,0.171,0.1718,0.175,0.1765,0.1794,0.1797,0.1818,0.1834,0.1851,0.1859,0.1903,0.1903,0.1907,0.1941,0.1976,0.1985,0.1992,0.2038,0.2049,0.1912,0.1912,0.1912,0,0.159,0.162,0.1641,0.1668,0.1691,0.1714,0.1742,0.1765,0.1797,0.1816,0.1808,0.1858,0.1856,0.1902,0.1919,0.1916,0.194,0.1911,0.1984,0.1992,0.1999,0.2043,0.2055,0.1915,0.1915,0.1914,0.1914,0,0.1615,0.164,0.1654,0.1699,0.1725,0.1753,0.1789,0.1815,0.1834,0.1858,0.1903,0.1913,0.1944,0.1951,0.1946,0.2002,0.2006,0.1986,0.1964,0.2012,0.2056,0.2068,0.1919,0.1918,0.1917,0.1916,0,0,0.1604,0.1661,0.1666,0.1691,0.1745,0.1768,0.1814,0.1864,0.1898,0.1929,0.1975,0.2004,0.2014,0.2025,0.2029,0.2056,0.2127,0.2045,0.2046,0.2088,0.2223,0.2208,0.2219,0.2122,0.2124,0.2125,0.2241,0,0.1619,0.1667,0.1696,0.1745,0.1774,0.1813,0.1854,0.1901,0.1939,0.1989,0.2016,0.2058,0.2043,0.2063,0.2092,0.2117,0.2157,0.2099,0.2172,0.2175,0.2153,0.2231,0.2069,0.2156,0.2252,0.2254,0.2255,0,0.1634,0.1666,0.1711,0.1772,0.1789,0.1821,0.1893,0.1933,0.2006,0.2039,0.2091,0.2115,0.2175,0.2143,0.2227,0.2195,0.2216,0.223,0.2234,0.2209,0.2181,0.2121,0.2173,0.2274,0.2273,0.2271,0.227,0,0.1612,0.1676,0.1709,0.1731,0.1803,0.1832,0.1872,0.1945,0.1995,0.2073,0.2125,0.2187,0.2237,0.2269,0.231,0.2276,0.2399,0.2353,0.2366,0.2365,0.2234,0.2219,0.2413,0.2413,0.2413,0.2412,0.2412,0,0.1614,0.1643,0.1701,0.1721,0.1766,0.182,0.1881,0.1931,0.2021,0.2089,0.2147,0.2221,0.2271,0.2346,0.2353,0.2415,0.2443,0.2395,0.24,0.2248,0.2234,0.2329,0.2318,0.2417,0.2416,0.2415,0.2414,0,0.1585,0.1624,0.1666,0.1735,0.1755,0.1786,0.1883,0.1931,0.2022,0.2117,0.215,0.2277,0.2375,0.2429,0.2502,0.2486,0.2525,0.2535,0.2365,0.2347,0.2457,0.2447,0.2562,0.2563,0.2563,0.2564,0.2564,0,0.1575,0.159,0.1657,0.1679,0.1709,0.1768,0.1808,0.1912,0.1968,0.2149,0.2189,0.2337,0.2408,0.2532,0.2546,0.2586,0.2588,0.2444,0.2338,0.2482,0.2475,0.2464,0.2454,0.2193,0.219,0.2188,0.2186,0,0.1548,0.157,0.16,0.1648,0.1688,0.1739,0.1806,0.1853,0.1983,0.2068,0.2191,0.2268,0.2423,0.2404,0.2481,0.2469,0.2419,0.2401,0.261,0.2178,0.2142,0.2133,0.2133,0.2166,0.2168,0.217,0.2171,0.2172,0.1518,0.1531,0.1571,0.1612,0.1656,0.1694,0.1716,0.179,0.1866,0.1972,0.2102,0.2165,0.2244,0.228,0.2246,0.2237,0.2379,0.2262,0.2265,0.2272,0.2206,0.2172,0.2191,0.2193,0.2195,0.2197,0.2198,0,0.1476,0.1498,0.1535,0.1577,0.1594,0.1648,0.1701,0.17,0.174,0.1866,0.1943,0.1862,0.1898,0.1974,0.1943,0.1965,0.1902,0.1882,0.1775,0.18,0.182,0.1726,0.1587,0.1584,0.1582,0.1579,0,0,0.1455,0.1463,0.1487,0.1499,0.1532,0.1531,0.1544,0.1544,0.1602,0.1611,0.165,0.1823,0.1936,0.1724,0.1728,0.1651,0.1698,0.1595,0.21,0.2001,0.2017,0.2073,0.1961,0,0,0,0,0]},{"header":{"parameterUnit":"m.s-1","parameterCategory":2,"la1":30.2991,"la2":30.254,"lo1":-89.0895,"lo2":-89.0444,"dy":0.0017,"dx":0.0017,"nx":28,"ny":28,"refTime":"2024-04-21T21:00:00:Z","depth":"2","parameterNumber":3,"parameterNumberName":"V-component_of_CURRENTS"},"data":[0,0,0,0,0,0,0,0,0,0,0,0,0,0,0,0,0,0,0,0,0,0,0,0,0,0,0,0,0,0,0,0,0,0,0,0,0,0,0,0,0,0,0,0,0,0,0,0,0,0,0,0,0,0,0,0,0,0,-0.0153,-0.0153,0,-0.0236,-0.0237,-0.0238,-0.0304,-0.0304,-0.0305,-0.0305,-0.0368,-0.0369,-0.037,0,0,0,0,0,0,0,0,0,0,0,0,0,-0.0105,-0.0105,-0.0153,-0.0153,-0.0154,-0.0235,-0.0237,-0.0238,-0.0304,-0.0304,-0.0305,-0.0305,-0.0367,-0.0369,-0.037,0,0,0,0,0,0,0,0,0,0,0,0,0,-0.0153,-0.0105,-0.0152,-0.0195,-0.0199,-0.0235,-0.0237,-0.0239,-0.0304,-0.0304,-0.0305,-0.0306,-0.0367,-0.0369,-0.0371,-0.037,0,0,-0.0376,-0.0377,0,0,0,0,0,0,0,0,-0.015,-0.0155,-0.0188,-0.0192,-0.0197,-0.0258,-0.0243,-0.0281,-0.0304,-0.0267,-0.0305,-0.0306,-0.0327,-0.0332,-0.035,-0.0373,-0.0376,-0.0377,-0.0378,-0.0379,-0.0379,0,0,0,0,0,0,0,-0.0146,-0.0152,-0.0188,-0.0189,-0.0194,-0.0228,-0.0235,-0.0251,-0.0294,-0.027,-0.0275,-0.0279,-0.033,-0.0348,-0.0352,-0.0376,-0.0377,-0.0378,-0.0379,-0.038,-0.0432,-0.0433,0,0,0,0,0,0,-0.0127,-0.0148,-0.0185,-0.019,-0.0171,-0.0228,-0.0236,-0.024,-0.0295,-0.0303,-0.0279,-0.0282,-0.0345,-0.035,-0.0355,-0.037,-0.0379,-0.038,-0.0382,-0.0432,-0.0432,-0.0433,0,0,0,0,0,0,-0.0126,-0.013,-0.0182,-0.0169,-0.0178,-0.0227,-0.0231,-0.0241,-0.0262,-0.0301,-0.0309,-0.0289,-0.0346,-0.0352,-0.0365,-0.0372,-0.0381,-0.0383,-0.0432,-0.0432,-0.0433,-0.0391,0,0,0,0,0,0,-0.0124,-0.0129,-0.0126,-0.0168,-0.0178,-0.0195,-0.0231,-0.0242,-0.0263,-0.0268,-0.0312,-0.0319,-0.0347,-0.0361,-0.0366,-0.0375,-0.0385,-0.0432,-0.0432,-0.0432,-0.0392,-0.039,-0.0388,0,0,0,0,0,-0.0122,-0.011,-0.0126,-0.013,-0.0172,-0.0195,-0.0203,-0.0243,-0.0262,-0.0265,-0.0295,-0.0318,-0.0369,-0.0362,-0.0368,-0.0378,-0.0431,-0.0432,-0.0432,-0.0393,-0.0391,-0.0388,0,0,0,0,0,0,-0.0083,-0.0117,-0.0135,-0.0133,-0.0159,-0.0205,-0.0211,-0.0237,-0.0266,-0.0271,-0.0311,-0.0319,-0.0337,-0.0359,-0.0351,-0.0396,-0.0408,-0.041,-0.0376,-0.0374,-0.0372,-0.0358,-0.0386,0,0,0,0,0,-0.0073,-0.0079,-0.0112,-0.0112,-0.0122,-0.0166,-0.0181,-0.0207,-0.0236,-0.0251,-0.0284,-0.0318,-0.0344,-0.0358,-0.0384,-0.0398,-0.0415,-0.0412,-0.041,-0.0408,-0.0402,-0.0434,-0.0434,-0.0434,-0.0434,-0.0434,0,0,-0.0061,-0.0077,-0.0083,-0.0105,-0.0131,-0.014,-0.0178,-0.0194,-0.0203,-0.025,-0.0272,-0.0307,-0.0345,-0.0367,-0.0379,-0.0386,-0.0415,-0.0409,-0.0407,-0.0401,-0.0434,-0.0434,-0.0434,-0.0435,-0.0435,-0.0435,0,0,-0.0033,-0.005,-0.0046,-0.0063,-0.0091,-0.0118,-0.0118,-0.0162,-0.0182,-0.0203,-0.0244,-0.0279,-0.0318,-0.0353,-0.0373,-0.0372,-0.0401,-0.0387,-0.0368,-0.0399,-0.0399,-0.0399,-0.041,-0.0412,-0.0389,-0.0389,-0.0389,0,-0.0017,-0.0014,-0.0047,-0.0045,-0.0053,-0.0103,-0.0097,-0.0123,-0.0167,-0.0178,-0.0201,-0.0276,-0.0312,-0.0341,-0.0352,-0.0368,-0.0382,-0.0372,-0.0395,-0.0396,-0.0397,-0.0408,-0.0411,-0.0387,-0.0388,-0.0388,-0.0388,0,0.0012,0.0013,0.0017,-0.0,-0.0012,-0.0015,-0.005,-0.0069,-0.0102,-0.0134,-0.0171,-0.0229,-0.0274,-0.03,-0.0327,-0.0357,-0.0363,-0.0385,-0.0397,-0.0394,-0.0407,-0.041,-0.0385,-0.0385,-0.0386,-0.0386,0,0,0.0049,0.0039,0.004,0.0044,0.0013,0.0009,-0.0002,-0.0024,-0.0028,-0.0088,-0.0101,-0.0173,-0.0216,-0.0242,-0.0291,-0.0328,-0.0353,-0.0359,-0.0361,-0.0361,-0.0407,-0.0394,-0.0397,-0.038,-0.038,-0.0381,-0.0409,0,0.0081,0.0104,0.0085,0.0101,0.0111,0.007,0.0067,0.0039,0.0004,-0.0021,-0.0093,-0.0125,-0.0189,-0.0214,-0.0263,-0.0327,-0.0361,-0.0343,-0.0417,-0.0419,-0.0402,-0.04,-0.0386,-0.0409,-0.0412,-0.0413,-0.0413,0,0.0116,0.0128,0.0155,0.0161,0.0161,0.0158,0.0146,0.0136,0.0089,0.0061,0.0005,-0.0047,-0.0114,-0.0169,-0.0277,-0.0262,-0.033,-0.0384,-0.0387,-0.0391,-0.0413,-0.0416,-0.0415,-0.0418,-0.0418,-0.0418,-0.0417,0,0.0165,0.018,0.0206,0.0205,0.0199,0.0202,0.0192,0.0159,0.0167,0.011,0.011,0.0015,-0.0019,-0.0126,-0.024,-0.0261,-0.0347,-0.0389,-0.044,-0.0439,-0.0449,-0.0448,-0.0462,-0.0462,-0.0462,-0.0462,-0.0462,0,0.021,0.023,0.0231,0.0243,0.0278,0.025,0.0277,0.0249,0.0233,0.0259,0.0154,0.016,-0.001,-0.0079,-0.0204,-0.0317,-0.032,-0.0429,-0.0447,-0.0433,-0.0431,-0.0461,-0.046,-0.0463,-0.0463,-0.0462,-0.0462,0,0.0256,0.0254,0.0289,0.0295,0.0301,0.0322,0.0342,0.0364,0.0333,0.0364,0.0355,0.0276,0.0183,0.0027,-0.0132,-0.0248,-0.0371,-0.041,-0.037,-0.0384,-0.0454,-0.0451,-0.0479,-0.0479,-0.0479,-0.0479,-0.0479,0,0.0281,0.0304,0.0333,0.0362,0.0365,0.0396,0.0424,0.0409,0.0447,0.0451,0.0482,0.0405,0.0362,0.0136,-0.0083,-0.0289,-0.0329,-0.0402,-0.0451,-0.0442,-0.0457,-0.0454,-0.0451,-0.0448,-0.0447,-0.0447,-0.0447,0,0.0333,0.0341,0.037,0.0433,0.0468,0.052,0.0563,0.061,0.0615,0.0643,0.0675,0.0639,0.0425,0.0217,-0.006,-0.0206,-0.0375,-0.0402,-0.0405,-0.044,-0.0413,-0.0427,-0.0426,-0.0444,-0.0445,-0.0445,-0.0445,-0.0445,0.0371,0.0409,0.0452,0.0513,0.0563,0.064,0.0698,0.0749,0.0817,0.0862,0.0829,0.0782,0.0532,0.0179,-0.007,-0.0334,-0.034,-0.0444,-0.0445,-0.0446,-0.0431,-0.0406,-0.0432,-0.0432,-0.0432,-0.0432,-0.0432,0,0.0427,0.0472,0.0534,0.061,0.0681,0.0695,0.0796,0.0846,0.0935,0.0965,0.0973,0.0765,0.0519,0.0243,-0.0147,-0.0387,-0.0425,-0.0457,-0.0459,-0.0459,-0.046,-0.0447,-0.0451,-0.0452,-0.0453,-0.0453,0,0,0.0458,0.0537,0.0573,0.0702,0.076,0.0863,0.0928,0.0984,0.1026,0.1049,0.1032,0.0951,0.0615,0.0339,0.0002,-0.022,-0.0285,-0.0267,-0.0229,-0.0193,-0.0191,-0.0433,-0.041,0,0,0,0,0]}],[{"header":{"parameterUnit":"m.s-1","parameterCategory":2,"la1":30.2991,"la2":30.254,"lo1":-89.0895,"lo2":-89.0444,"dy":0.0017,"dx":0.0017,"nx":28,"ny":28,"refTime":"2024-04-21T21:00:00:Z","depth":"4","parameterNumber":2,"parameterNumberName":"U-component_of_CURRENTS"},"data":[0,0,0,0,0,0,0,0,0,0,0,0,0,0,0,0,0,0,0,0,0,0,0,0,0,0,0,0,0,0,0,0,0,0,0,0,0,0,0,0,0,0,0,0,0,0,0,0,0,0,0,0,0,0,0,0,0,0,0.098,0.0981,0,0.1042,0.1042,0.1043,0.1048,0.1048,0.1048,0.1047,0.1108,0.111,0.1112,0,0,0,0,0,0,0,0,0,0,0,0,0,0.083,0.0833,0.098,0.0981,0.0982,0.1042,0.1042,0.1043,0.1048,0.1048,0.1047,0.1047,0.1108,0.111,0.1112,0,0,0,0,0,0,0,0,0,0,0,0,0,0.0889,0.0834,0.098,0.0996,0.0998,0.1042,0.1042,0.1043,0.1048,0.1048,0.1047,0.1047,0.1107,0.1109,0.1112,0.1135,0,0,0.112,0.1122,0,0,0,0,0,0,0,0,0.0886,0.0894,0.0992,0.0995,0.0998,0.1041,0.1012,0.1075,0.1048,0.1024,0.1047,0.1047,0.1089,0.1093,0.1098,0.1137,0.114,0.1121,0.1122,0.1123,0.1124,0,0,0,0,0,0,0,0.0882,0.0891,0.0999,0.0994,0.0997,0.0988,0.0996,0.1024,0.1053,0.1026,0.1028,0.1043,0.109,0.1096,0.11,0.1141,0.1121,0.1123,0.1125,0.1126,0.1228,0.1229,0,0,0,0,0,0,0.0887,0.0888,0.0997,0.1002,0.0946,0.0992,0.1,0.1023,0.1053,0.1059,0.1043,0.1043,0.1091,0.1097,0.1102,0.117,0.1123,0.1126,0.1127,0.1227,0.1228,0.123,0,0,0,0,0,0,0.0884,0.0897,0.0995,0.0949,0.0962,0.0996,0.1021,0.1025,0.1052,0.1067,0.1072,0.1069,0.1091,0.1098,0.1139,0.1171,0.1127,0.113,0.1226,0.1227,0.1229,0.128,0,0,0,0,0,0,0.088,0.0895,0.0921,0.095,0.0965,0.1029,0.1022,0.1027,0.1063,0.1064,0.1091,0.1095,0.1092,0.1135,0.1142,0.1174,0.1132,0.1224,0.1226,0.1228,0.1277,0.1283,0.1289,0,0,0,0,0,0.0874,0.0907,0.0922,0.0936,0.0997,0.103,0.1036,0.1054,0.1065,0.1077,0.1097,0.1095,0.1153,0.1139,0.1146,0.1179,0.1223,0.1226,0.1228,0.1275,0.1282,0.1289,0,0,0,0,0,0,0.0859,0.0912,0.0929,0.0978,0.1007,0.1033,0.1057,0.1072,0.1098,0.1107,0.1114,0.112,0.1168,0.1167,0.1151,0.1213,0.1186,0.1191,0.1219,0.1226,0.1232,0.1228,0.1134,0,0,0,0,0,0.0869,0.0908,0.0948,0.099,0.1008,0.1038,0.1059,0.1074,0.11,0.1112,0.1136,0.1158,0.1181,0.1198,0.1218,0.1257,0.1259,0.1281,0.1287,0.1292,0.1293,0.1324,0.1333,0.1238,0.1238,0.1238,0,0,0.0874,0.0913,0.0934,0.099,0.1016,0.1043,0.1049,0.1089,0.1115,0.1117,0.1167,0.1187,0.1197,0.1237,0.1258,0.1242,0.1321,0.1295,0.1299,0.1298,0.1327,0.1337,0.1345,0.1239,0.1239,0.1239,0,0,0.0894,0.094,0.097,0.0998,0.1048,0.1065,0.1083,0.1125,0.1148,0.1194,0.1203,0.1237,0.128,0.1289,0.1298,0.1349,0.1353,0.1365,0.1392,0.1423,0.1431,0.1438,0.1455,0.1463,0.1365,0.1365,0.1365,0,0.0895,0.0946,0.0983,0.1015,0.1043,0.1078,0.1106,0.1134,0.1186,0.1212,0.1215,0.1287,0.1298,0.134,0.1357,0.1362,0.1381,0.1366,0.1431,0.1438,0.1444,0.146,0.1468,0.1368,0.1367,0.1367,0.1367,0,0.0927,0.0972,0.0994,0.1046,0.1077,0.1111,0.1152,0.1192,0.1228,0.1255,0.1319,0.1338,0.1378,0.139,0.1391,0.1448,0.1448,0.1438,0.1413,0.1457,0.1471,0.1479,0.1372,0.1371,0.137,0.1369,0,0,0.091,0.0997,0.1005,0.1036,0.1098,0.1125,0.1176,0.1228,0.1268,0.1318,0.1369,0.1412,0.1437,0.1448,0.1463,0.1487,0.1548,0.1491,0.1491,0.1507,0.1622,0.1544,0.1545,0.1562,0.1564,0.1565,0.1615,0,0.0921,0.0986,0.1026,0.1082,0.1115,0.1163,0.1205,0.1258,0.1307,0.1365,0.14,0.1455,0.1455,0.1489,0.1516,0.1547,0.1572,0.1536,0.1576,0.1577,0.1503,0.1552,0.157,0.162,0.1622,0.1623,0.1624,0,0.0929,0.0976,0.1034,0.1109,0.1128,0.1165,0.1243,0.1288,0.1367,0.1404,0.1465,0.1502,0.1564,0.155,0.1621,0.1608,0.1622,0.1631,0.1633,0.1546,0.1514,0.1566,0.1638,0.1637,0.1636,0.1635,0.1634,0,0.0897,0.0979,0.1029,0.1055,0.1139,0.118,0.1229,0.1306,0.1353,0.1445,0.1489,0.1558,0.1608,0.1644,0.1682,0.1667,0.1746,0.1719,0.1656,0.1651,0.1682,0.1674,0.1759,0.1759,0.1759,0.1758,0.1758,0,0.0886,0.0927,0.1024,0.105,0.1108,0.1176,0.1243,0.13,0.1385,0.144,0.1519,0.1568,0.164,0.1696,0.1709,0.1715,0.1772,0.167,0.1663,0.1702,0.1696,0.1688,0.1679,0.176,0.176,0.176,0.1759,0,0.0843,0.0908,0.0968,0.1064,0.1097,0.1143,0.1247,0.1291,0.1383,0.146,0.1497,0.1601,0.1674,0.1728,0.1786,0.1743,0.1755,0.1738,0.1787,0.1781,0.1629,0.1623,0.1665,0.1663,0.1661,0.1659,0.1658,0,0.0826,0.0857,0.0965,0.1002,0.1051,0.1129,0.1175,0.1276,0.1324,0.1466,0.1493,0.1607,0.1665,0.1684,0.1741,0.1763,0.1741,0.1729,0.1664,0.1633,0.1622,0.1619,0.1615,0.1655,0.1655,0.1654,0.1654,0,0.0787,0.0836,0.0885,0.0959,0.1019,0.1077,0.1158,0.1182,0.1299,0.1395,0.1463,0.1513,0.1589,0.1633,0.1669,0.1676,0.1727,0.1709,0.1711,0.165,0.1621,0.1612,0.161,0.1647,0.1648,0.1649,0.1649,0,0.0757,0.0777,0.0847,0.0903,0.0973,0.1009,0.106,0.1124,0.1183,0.1336,0.1356,0.1476,0.1573,0.159,0.1623,0.1631,0.1598,0.1534,0.1545,0.1553,0.1494,0.1439,0.1411,0,0,0,0,0,0.072,0.0739,0.0786,0.0843,0.0908,0.0953,0.1039,0.1091,0.1201,0.1219,0.1285,0.1354,0.1417,0.1478,0.1463,0.1569,0.1598,0.1545,0.1528,0.1611,0.1618,0.156,0,0,0,0,0,0,0.0694,0.0743,0.0758,0.0778,0.081,0.0872,0.0925,0.1003,0.1019,0.1139,0.1181,0.1278,0.1357,0.1415,0.144,0.1458,0.1421,0.1621,0.1618,0.1606,0.1613,0.1619,0.1562,0,0,0,0,0]},{"header":{"parameterUnit":"m.s-1","parameterCategory":2,"la1":30.2991,"la2":30.254,"lo1":-89.0895,"lo2":-89.0444,"dy":0.0017,"dx":0.0017,"nx":28,"ny":28,"refTime":"2024-04-21T21:00:00:Z","depth":"4","parameterNumber":3,"parameterNumberName":"V-component_of_CURRENTS"},"data":[0,0,0,0,0,0,0,0,0,0,0,0,0,0,0,0,0,0,0,0,0,0,0,0,0,0,0,0,0,0,0,0,0,0,0,0,0,0,0,0,0,0,0,0,0,0,0,0,0,0,0,0,0,0,0,0,0,0,0.0166,0.0166,0,0.0132,0.0132,0.0131,0.013,0.013,0.0131,0.0131,0.0112,0.0111,0.011,0,0,0,0,0,0,0,0,0,0,0,0,0,0.0251,0.0249,0.0167,0.0166,0.0166,0.0132,0.0132,0.0131,0.013,0.013,0.0131,0.0131,0.0112,0.0111,0.011,0,0,0,0,0,0,0,0,0,0,0,0,0,0.0215,0.0249,0.0167,0.0161,0.016,0.0132,0.0132,0.0131,0.013,0.013,0.0131,0.0131,0.0112,0.0111,0.011,0.009,0,0,0.0106,0.0105,0,0,0,0,0,0,0,0,0.0217,0.0212,0.0162,0.0161,0.016,0.0136,0.0155,0.0118,0.013,0.0141,0.0131,0.0132,0.0121,0.0119,0.0111,0.0089,0.0088,0.0106,0.0105,0.0104,0.0104,0,0,0,0,0,0,0,0.022,0.0214,0.0153,0.0162,0.016,0.0167,0.0162,0.0148,0.0128,0.014,0.014,0.0136,0.012,0.0112,0.011,0.0088,0.0106,0.0104,0.0104,0.0103,0.0071,0.0071,0,0,0,0,0,0,0.0222,0.0216,0.0154,0.0152,0.0191,0.0165,0.016,0.0143,0.0128,0.0126,0.0135,0.0136,0.0114,0.0112,0.011,0.0115,0.0104,0.0103,0.0102,0.0071,0.0071,0.0071,0,0,0,0,0,0,0.0223,0.0216,0.0156,0.0184,0.0177,0.0163,0.0144,0.0142,0.0137,0.0124,0.0123,0.0133,0.0114,0.0112,0.0102,0.0113,0.0102,0.0101,0.0071,0.0071,0.0071,0.0107,0,0,0,0,0,0,0.0226,0.0217,0.0209,0.0184,0.0175,0.0147,0.0143,0.0141,0.0134,0.0134,0.0122,0.012,0.0115,0.0104,0.01,0.0111,0.01,0.0071,0.0071,0.0071,0.0106,0.0108,0.011,0,0,0,0,0,0.0229,0.022,0.0209,0.0202,0.0164,0.0147,0.0144,0.0136,0.0133,0.0133,0.0123,0.0121,0.0101,0.0102,0.0098,0.011,0.0071,0.0071,0.0071,0.0105,0.0108,0.011,0,0,0,0,0,0,0.0251,0.0218,0.0205,0.0185,0.017,0.0147,0.0147,0.0136,0.0126,0.013,0.0116,0.0114,0.0109,0.0099,0.0101,0.0098,0.0087,0.0086,0.0114,0.0116,0.0118,0.0132,0.0099,0,0,0,0,0,0.025,0.0237,0.0207,0.0192,0.0185,0.0164,0.0156,0.015,0.0136,0.0133,0.0122,0.0112,0.0103,0.0103,0.009,0.0087,0.0064,0.0091,0.0094,0.0096,0.0103,0.0068,0.0068,0.007,0.007,0.007,0,0,0.0256,0.0235,0.0228,0.0197,0.0184,0.0181,0.0161,0.0153,0.0156,0.0132,0.0132,0.0114,0.0101,0.01,0.0098,0.0097,0.0081,0.0095,0.0097,0.0104,0.0068,0.0068,0.0068,0.007,0.007,0.007,0,0,0.0267,0.024,0.0237,0.0226,0.0207,0.0195,0.0194,0.0171,0.0167,0.0157,0.0144,0.0133,0.0117,0.0114,0.011,0.0114,0.0088,0.0109,0.0139,0.0105,0.0104,0.0104,0.007,0.0066,0.0117,0.0117,0.0117,0,0.0277,0.0261,0.0235,0.0233,0.023,0.0204,0.0208,0.0199,0.0178,0.0174,0.0164,0.0139,0.0126,0.013,0.0135,0.0121,0.0094,0.0133,0.0108,0.0107,0.0106,0.0071,0.0067,0.0119,0.0119,0.0118,0.0118,0,0.0285,0.0278,0.0277,0.0265,0.0259,0.0258,0.0242,0.0238,0.0225,0.0212,0.0203,0.018,0.0167,0.0162,0.0151,0.0144,0.0124,0.011,0.0104,0.0108,0.0071,0.0065,0.0121,0.0121,0.012,0.012,0,0,0.0291,0.0285,0.0285,0.029,0.0277,0.0273,0.028,0.0273,0.0276,0.0255,0.0254,0.0238,0.0218,0.0212,0.0194,0.0172,0.0138,0.0143,0.0141,0.0115,0.0058,0.0033,0.0024,0.0117,0.0116,0.0115,0.0034,0,0.0306,0.0315,0.0307,0.0323,0.0327,0.0314,0.0324,0.0317,0.0302,0.0294,0.0272,0.026,0.024,0.0232,0.0208,0.0153,0.0126,0.0161,0.0055,0.0052,0.0033,0.0018,0.0113,0.003,0.0029,0.0028,0.0027,0,0.0313,0.032,0.0338,0.0353,0.0354,0.0363,0.0368,0.0372,0.0358,0.0346,0.033,0.0301,0.0276,0.0251,0.0168,0.0189,0.0129,0.0086,0.0081,0.0044,0.0016,0.0025,0.0017,0.0018,0.0018,0.0019,0.002,0,0.0325,0.0341,0.0358,0.0362,0.0375,0.0385,0.0393,0.0387,0.0394,0.0375,0.037,0.0329,0.0304,0.0232,0.0142,0.0149,0.0039,0.0033,-0.0044,-0.0047,-0.0014,-0.0013,-0.003,-0.003,-0.003,-0.003,-0.003,0,0.0336,0.035,0.0368,0.0377,0.0406,0.0406,0.043,0.0428,0.043,0.0436,0.0398,0.0385,0.0295,0.0222,0.0143,0.0029,0.0033,-0.0043,-0.007,0.0002,0.0006,-0.0019,-0.0016,-0.0033,-0.0032,-0.0032,-0.0031,0,0.0338,0.035,0.0373,0.0398,0.041,0.0428,0.0459,0.0474,0.0472,0.0476,0.0472,0.0417,0.0319,0.022,0.0091,0.0026,-0.0078,-0.0121,-0.004,-0.0061,-0.014,-0.0134,-0.021,-0.0212,-0.0213,-0.0214,-0.0215,0,0.0336,0.0349,0.0388,0.0407,0.042,0.0452,0.0477,0.0493,0.0508,0.0492,0.0494,0.0409,0.0356,0.0165,0.0055,-0.0107,-0.0127,-0.0183,-0.0153,-0.0139,-0.0159,-0.0151,-0.0144,-0.0218,-0.0218,-0.0218,-0.0219,0,0.0333,0.0349,0.0369,0.0414,0.0446,0.0484,0.0518,0.0532,0.0544,0.0548,0.0504,0.0407,0.0293,0.0154,0.002,-0.0091,-0.0146,-0.0197,-0.0195,-0.0167,-0.0149,-0.0165,-0.0157,-0.0223,-0.0223,-0.0222,-0.0222,0,0.0326,0.0341,0.0373,0.0411,0.0457,0.0495,0.0517,0.0533,0.0548,0.0536,0.0515,0.0402,0.0339,0.0161,0.004,-0.0078,-0.01,-0.0129,-0.013,-0.0127,-0.0077,-0.0041,-0.0109,0,0,0,0,0,0.0314,0.0331,0.0367,0.0408,0.0458,0.049,0.0535,0.0555,0.0569,0.0542,0.0532,0.0427,0.0244,0.017,0.0047,0.0008,-0.0128,-0.0141,-0.0163,-0.0249,-0.0244,-0.0202,0,0,0,0,0,0,0.03,0.0334,0.0357,0.04,0.0434,0.0488,0.0522,0.0535,0.0525,0.0523,0.0433,0.0394,0.0222,0.0314,0.0045,0.0008,-0.0023,-0.022,-0.0223,-0.0252,-0.0247,-0.0243,-0.0199,0,0,0,0,0]}]]